Location: Dillon
(41.1766°N, 107.0923°W)
Time: 11:27:32
(UTC+00:00)

SO-50 - Pass Details

Date: 05 July 2022
Orbit: 584 x 698 km, 64.6° (Epoch: 18 August)

Event Time Altitude Azimuth Distance (km) Brightness Sun altitude
Exits shadow 06:47:45 48° 274° (W) 861 ? -25.8°
Maximum altitude 06:48:27 53° 307° (NW) 814 ? -25.8°
Drops below altitude 10° 06:53:12 10° 25° (NNE) 2,124 ? -25.9°
Sets 06:55:37 0° 30° (NNE) 3,057 ? -25.9°
